Theta_e
315 314 313 312 312 312 312 312 312 311 312 313 314 314 315 317 316 313 317 320 312 307 308 310 309 304 303 302 295 299 298 298 295 290 288 288 285 287 286 288 289 287 285 286 286 283 279 298 298 291 294 297 298 299
315 314 312 311 311 312 311 311 311 311 312 313 314 314 315 316 316 314 315 321 320 311 309 314 314 314 311 308 302 302 298 298 297 294 291 290 286 288 287 283 291 285 289 286 287 288 295 295 294 296 297 295 296 297
314 313 311 311 311 311 311 311 311 311 312 312 313 313 315 316 315 314 312 317 317 311 310 310 308 313 313 311 309 301 302 302 301 302 296 293 286 290 284 285 288 291 294 288 288 292 293 293 295 295 295 295 297 298
313 312 311 311 311 311 311 311 311 311 311 312 312 313 314 315 315 314 311 315 316 312 304 308 315 311 315 312 311 309 306 307 306 302 297 293 289 294 288 290 288 291 292 289 289 292 292 295 295 295 296 297 297 299
312 311 310 310 311 311 311 311 311 311 310 311 312 313 314 315 314 313 313 317 319 310 303 304 311 314 314 312 310 310 307 305 302 299 296 293 296 295 295 293 288 293 290 287 284 293 292 292 296 296 295 295 296 297
311 310 309 310 311 311 311 311 311 311 311 311 312 313 315 315 314 312 313 318 318 318 307 300 313 311 311 312 310 307 306 305 303 300 298 299 301 296 290 287 294 297 298 296 293 296 295 296 297 297 296 297 298 298
311 309 309 310 311 311 311 311 310 310 310 311 312 313 314 314 312 311 309 313 312 318 306 301 305 312 312 311 309 307 307 304 303 303 299 298 299 299 293 286 295 299 299 299 299 298 295 296 294 298 298 297 299 299
310 309 309 310 311 311 311 310 309 310 310 310 311 313 313 313 311 309 315 313 316 312 309 300 302 308 313 305 302 308 303 304 304 302 301 298 299 296 286 295 299 301 301 300 300 299 298 298 298 299 300 298 296 296
309 309 309 309 310 311 310 309 309 309 310 310 311 313 312 309 310 315 317 314 315 311 302 302 301 298 312 308 306 305 306 299 305 299 300 298 289 284 289 296 299 301 299 300 300 300 299 297 298 298 297 296 295 296
309 309 309 310 310 310 310 310 309 309 310 310 311 310 309 316 316 316 310 306 305 306 306 300 308 302 308 308 305 302 302 297 294 299 303 293 288 296 301 304 302 302 301 302 298 295 296 297 298 298 297 297 297 296
308 308 309 310 310 310 310 310 309 309 309 311 312 314 317 316 314 310 306 303 304 302 304 306 306 303 311 302 302 306 299 299 291 296 295 294 294 299 304 303 304 304 303 301 301 302 299 299 298 298 298 298 297 297
308 308 309 309 310 310 310 310 309 308 317 312 311 314 319 314 310 305 304 305 300 300 305 305 308 308 311 312 304 299 296 298 289 302 296 288 298 302 302 302 304 304 304 303 304 303 302 302 301 300 300 298 298 299
308 308 309 309 309 310 310 310 309 309 310 318 314 313 312 311 296 299 295 300 300 305 305 308 305 310 310 306 298 298 293 292 302 291 288 295 297 301 302 304 304 305 306 304 304 304 305 304 303 302 301 301 300 299
308 308 308 309 310 310 310 310 309 308 309 312 312 293 305 303 303 302 301 303 309 306 308 310 305 304 305 299 298 291 292 299 289 287 290 295 297 301 302 305 303 303 305 305 303 304 303 303 302 303 303 302 302 300
308 308 309 310 311 310 309 308 308 311 314 313 313 296 305 308 307 309 311 311 312 312 308 306 303 303 300 296 297 297 293 290 292 290 296 300 301 302 303 303 302 304 302 302 303 303 303 303 302 301 303 302 303 301
308 308 312 312 312 311 308 308 310 317 318 315 313 308 312 310 311 310 311 307 310 309 310 307 301 299 298 299 295 293 290 286 291 297 301 304 304 304 304 304 304 304 304 302 302 303 304 302 300 302 303 303 302 302
306 318 312 312 312 311 309 312 316 315 314 313 309 312 310 313 310 312 309 308 314 307 302 304 298 295 301 296 293 298 292 297 300 302 305 305 304 304 304 305 305 305 305 303 303 302 303 303 303 303 300 303 302 302
314 312 312 312 313 311 317 313 318 316 311 313 309 312 313 316 312 311 313 314 312 308 307 301 305 298 295 292 294 299 301 303 305 304 305 306 307 306 306 305 306 306 305 306 305 304 302 301 303 300 301 303 303 303
309 309 309 310 310 313 318 319 319 310 312 314 315 317 317 315 318 318 315 317 317 316 311 306 300 297 297 300 300 302 302 304 303 304 306 308 307 307 306 306 307 305 303 304 303 302 301 302 300 302 302 302 301 300
307 308 309 308 308 315 316 318 325 317 312 315 318 316 318 315 317 317 315 314 314 310 304 301 300 304 304 307 308 307 307 308 307 303 304 305 307 307 305 305 304 303 302 302 303 301 301 301 302 301 300 301 299 299
317 315 311 312 312 316 316 318 317 316 314 312 311 310 312 318 315 312 310 314 309 306 303 306 307 310 313 313 313 313 311 311 307 307 307 305 303 302 303 303 304 303 301 301 300 299 300 300 299 301 301 300 301 301
322 313 321 315 317 321 318 322 317 318 314 314 315 314 312 311 311 311 314 309 307 309 310 310 312 311 310 310 312 312 312 312 311 309 304 304 302 302 300 301 301 300 299 300 300 298 300 300 300 301 301 300 299 300
314 317 320 322 316 310 307 324 316 317 311 312 315 311 305 306 311 317 309 311 310 316 315 314 314 316 314 315 309 311 312 311 308 306 305 303 303 303 301 301 301 299 300 301 301 300 301 298 300 300 301 301 301 300
314 317 315 314 313 305 318 315 316 314 314 311 309 305 306 309 314 308 304 306 309 312 312 312 312 312 316 312 308 309 307 308 306 302 302 302 300 301 303 301 300 300 301 302 301 301 300 300 298 300 301 300 300 300
302 303 306 293 313 313 310 310 311 310 308 311 309 305 306 312 305 303 302 308 308 306 308 310 308 307 302 303 303 303 306 303 300 298 300 301 300 300 299 299 300 300 301 300 299 300 299 300 300 299 298 298 299 300
294 308 299 308 308 308 309 306 308 308 307 306 308 307 308 304 303 301 306 309 308 306 306 306 304 303 302 302 301 300 301 303 301 298 299 299 300 298 298 296 296 298 302 301 301 300 300 300 300 300 298 298 296 299
298 304 311 315 312 313 311 313 312 310 307 304 306 304 303 300 301 308 315 316 307 308 310 308 306 303 302 302 303 304 304 304 302 300 301 301 300 300 299 296 296 299 302 302 302 301 300 299 299 299 298 300 300 300
308 311 306 310 310 311 309 310 307 304 307 312 310 304 303 303 305 313 314 312 309 309 307 306 306 304 303 303 304 304 304 304 304 302 301 300 300 299 300 299 300 296 298 297 300 301 300 299 299 299 299 298 298 300
306 310 311 309 310 312 311 309 307 309 311 309 307 308 310 315 315 313 311 309 308 307 305 304 304 304 303 303 304 304 304 303 302 299 297 295 296 298 301 301 300 300 298 296 292 295 298 298 299 300 300 299 300 300
306 310 308 308 308 307 311 316 313 314 315 315 316 317 314 314 315 315 312 312 308 307 306 306 305 305 301 301 300 301 302 302 301 300 297 296 297 299 300 301 301 300 301 299 298 298 295 299 298 301 299 298 298 298
310 310 309 309 310 314 316 316 316 316 317 314 315 314 312 313 314 317 314 313 310 307 304 303 302 302 302 301 301 299 298 301 303 302 302 301 301 301 302 302 302 301 301 301 300 299 299 299 299 298 297 297 298 296
311 310 309 309 312 317 317 314 314 312 313 309 310 315 314 311 309 312 315 314 310 306 301 305 301 300 304 303 302 302 298 301 300 300 303 302 302 302 302 301 301 302 302 300 300 299 299 298 297 297 296 297 297 297
312 313 314 312 311 311 313 312 309 310 311 307 308 315 311 310 308 313 317 318 315 309 306 305 303 304 306 303 301 299 297 296 293 291 291 291 291 294 299 300 301 303 302 301 300 299 299 299 298 298 298 298 298 297
Wind_Speed
8 8 7 7 8 10 10 11 10 10 10 9 9 8 11 12 11 7 2 4 3 4 4 8 5 4 5 2 1 3 1 3 4 4 3 2 2 2 2 4 6 4 4 4 5 6 6 20 11 8 8 14 13 12
8 7 7 9 9 9 9 9 9 9 9 9 8 7 10 11 10 8 3 3 1 3 4 2 7 2 1 2 1 2 2 2 2 2 2 1 0 2 2 2 5 1 3 3 3 6 11 10 11 11 13 13 15 16
8 8 7 9 9 9 9 9 8 8 8 8 7 6 8 9 8 5 5 5 3 4 6 3 4 4 2 5 3 0 2 4 2 2 2 2 2 3 1 2 3 2 3 2 5 3 13 14 10 13 16 15 17 17
7 7 7 9 9 8 8 9 8 7 6 7 5 6 8 8 6 3 3 6 2 3 3 4 6 5 3 7 5 4 4 5 6 3 3 2 2 4 3 3 3 3 4 3 6 9 15 3 14 15 16 17 18 17
7 7 7 9 8 8 8 8 8 6 5 6 5 7 9 9 7 6 5 5 1 2 3 6 12 8 7 7 5 6 1 1 3 2 3 4 3 3 3 1 3 3 4 2 4 6 8 11 12 16 15 16 17 22
7 7 8 8 8 8 9 8 8 6 6 5 5 8 8 8 6 5 2 2 3 2 2 4 2 4 7 8 6 6 3 4 3 4 4 4 6 5 4 3 5 10 8 8 4 4 6 10 12 12 13 14 16 21
7 6 8 9 8 8 9 8 8 6 7 5 4 7 6 5 3 4 3 2 5 2 2 5 3 6 11 7 3 2 6 3 3 3 3 3 3 6 2 3 6 6 13 11 7 7 7 5 7 11 10 11 10 13
8 6 8 8 8 8 9 8 8 7 8 6 5 7 7 5 8 6 3 6 3 3 2 4 5 2 9 4 3 4 3 4 4 4 2 3 3 3 1 7 7 6 8 9 9 7 7 7 6 8 7 9 9 10
7 5 7 8 8 9 8 8 8 7 7 4 4 7 3 3 4 2 10 9 2 2 3 4 3 3 7 5 5 5 6 4 4 4 3 5 2 3 8 7 8 5 2 4 7 10 9 8 7 4 7 10 9 10
8 7 8 8 8 9 8 8 6 6 5 1 2 4 4 2 14 8 3 2 1 3 3 4 4 7 7 6 5 3 3 4 3 5 5 4 4 6 7 8 8 7 6 5 5 2 5 5 4 1 6 7 8 9
7 8 8 9 9 9 9 8 6 6 4 3 4 3 4 4 2 2 4 5 4 4 5 3 4 13 7 4 3 3 0 2 1 3 5 4 3 4 7 5 9 7 6 3 3 5 2 7 2 2 4 5 5 7
8 9 10 10 10 11 11 9 8 5 2 3 3 6 4 4 4 4 2 3 2 4 3 4 5 6 2 3 3 2 2 1 4 3 3 1 3 7 3 4 7 10 8 5 5 4 5 6 2 1 5 4 2 3
9 10 11 11 12 11 13 11 14 13 11 3 3 5 3 4 2 5 8 1 3 3 5 5 5 4 3 6 4 2 2 2 3 2 4 4 3 2 10 4 7 6 8 12 6 2 7 3 5 2 2 6 4 3
10 11 11 11 11 7 6 9 9 5 5 4 4 4 4 3 5 2 6 8 4 6 7 4 4 4 3 4 2 3 5 1 4 4 3 2 6 7 10 3 9 6 4 8 10 6 4 4 3 3 1 5 6 2
12 12 10 9 6 5 7 8 8 5 3 5 2 3 3 6 6 5 6 4 2 4 4 3 4 2 2 1 2 3 0 3 4 4 2 5 9 8 4 2 3 6 5 2 6 8 6 5 7 2 4 4 5 5
12 15 3 7 7 9 10 7 5 4 4 4 5 4 2 3 3 2 2 6 6 6 4 3 1 2 2 2 4 6 5 2 3 4 4 6 4 3 1 4 2 3 2 6 3 5 5 7 6 3 6 4 3 4
8 1 5 2 4 10 9 4 5 6 5 4 5 11 1 0 3 3 4 5 2 4 3 1 4 4 3 2 4 2 3 4 2 4 3 3 2 2 1 5 3 5 1 4 7 8 1 6 3 11 7 4 3 4
0 3 1 4 7 6 5 5 5 5 7 3 3 2 4 2 2 4 3 3 3 2 2 2 2 4 4 5 3 1 1 2 2 3 2 3 4 5 6 10 1 3 5 2 2 5 2 5 2 8 8 7 6 1
8 6 5 4 3 3 4 7 5 5 3 0 3 3 5 3 3 2 2 4 2 2 1 2 2 4 4 3 4 3 3 4 3 5 2 4 2 0 2 7 6 2 3 8 5 5 7 7 2 10 8 8 4 5
18 13 9 9 4 4 5 4 4 5 4 5 4 3 3 4 3 1 3 3 3 1 3 4 4 2 1 1 3 3 4 5 4 5 5 3 2 2 7 9 7 5 6 9 5 7 8 8 4 5 6 7 4 6
6 6 8 8 5 6 5 5 0 2 3 1 3 4 2 1 2 4 3 2 2 3 2 3 1 1 4 2 2 2 2 2 2 2 2 2 7 5 3 5 4 5 3 5 6 6 8 8 8 2 7 5 5 6
0 10 2 5 5 6 6 6 3 2 3 2 1 4 1 3 4 3 2 1 2 2 2 2 1 2 4 2 1 2 3 2 4 2 1 2 5 3 7 6 6 7 3 1 3 6 0 4 5 7 4 5 4 5
4 4 4 6 6 3 8 3 5 7 5 2 3 4 2 1 1 2 2 2 3 2 4 2 4 5 5 4 5 1 4 5 2 2 1 6 6 8 7 5 2 4 4 2 4 5 2 4 7 6 8 5 6 6
2 4 5 4 5 5 4 4 4 5 4 1 3 5 4 4 3 2 1 2 5 4 3 3 4 2 3 7 4 1 4 2 5 6 5 6 8 5 1 3 6 5 5 4 5 4 5 6 8 9 5 7 5 8
1 7 3 6 5 4 5 6 10 9 2 4 6 7 1 5 3 2 3 1 4 4 3 3 3 4 5 6 6 6 8 8 8 8 7 7 5 4 6 6 6 6 6 7 5 6 4 4 3 4 8 6 7 9
3 5 5 6 5 6 5 3 4 4 6 7 7 6 1 3 3 3 3 3 4 4 3 2 2 3 7 7 7 7 5 7 7 7 5 6 7 5 5 6 8 5 5 6 4 3 1 3 5 5 6 6 6 8
4 6 7 6 5 6 4 3 2 2 4 5 4 6 4 4 3 3 3 3 6 4 2 1 3 4 6 7 7 5 5 5 5 5 4 7 7 6 5 5 7 3 3 5 6 4 4 5 2 9 8 4 5 3
7 6 10 8 7 7 3 5 5 5 2 3 3 2 5 6 2 3 5 6 7 5 5 4 4 5 5 4 4 6 6 6 7 8 8 8 8 6 5 5 4 9 4 6 7 8 8 6 7 6 3 7 5 4
6 6 9 12 10 3 5 5 7 4 4 4 8 8 6 2 5 7 7 7 7 7 6 6 5 7 6 5 3 2 2 5 5 6 7 7 7 4 3 4 7 5 5 5 7 6 7 6 5 5 7 5 2 4
11 9 10 13 8 2 3 5 3 4 4 4 4 2 6 6 6 6 7 5 5 5 4 4 3 3 6 7 6 5 6 6 7 4 6 6 6 5 4 4 3 4 6 8 6 4 3 1 1 3 5 4 4 3
7 8 11 9 5 5 7 4 5 7 10 4 12 8 7 5 3 3 6 6 5 6 5 5 4 4 4 7 7 7 7 5 5 6 5 6 6 4 4 4 3 4 5 5 4 5 4 2 3 4 5 5 3 3
8 10 10 7 4 4 4 4 5 4 3 8 10 6 9 7 5 5 5 5 7 7 3 4 6 6 7 8 7 8 12 8 8 7 8 7 6 4 3 3 2 2 3 4 4 4 5 6 4 4 3 5 5 3
10 9 7 8 4 3 3 1 4 6 6 5 6 1 9 9 6 4 5 4 3 7 7 7 9 8 9 12 11 9 10 8 10 10 11 11 11 10 7 7 6 4 3 2 4 7 5 4 4 5 3 3 4 5
Wind_Direction
285 277 290 314 324 325 330 331 337 330 334 341 327 347 333 333 5 359 321 54 0 326 16 4 37 18 349 284 41 12 312 20 21 57 8 45 30 15 340 305 324 324 336 329 302 218 259 4 14 9 326 316 320 331
274 271 294 315 321 325 326 326 334 323 334 329 327 346 328 328 354 357 296 98 146 262 325 279 306 38 164 113 330 58 133 85 75 81 83 106 352 14 329 292 339 65 75 297 269 295 6 2 318 343 352 333 319 321
267 268 300 312 317 323 323 325 325 321 331 325 326 342 326 322 341 358 309 324 333 289 284 203 225 230 196 113 18 120 125 128 111 352 105 91 181 148 283 304 278 265 80 243 303 28 334 324 351 341 329 318 304 297
260 270 302 308 314 320 316 320 314 318 325 310 325 328 305 302 317 335 298 308 312 297 281 292 145 169 148 123 181 88 118 122 138 148 152 175 229 145 209 231 194 239 306 275 256 276 310 239 332 327 321 317 308 299
242 267 297 303 312 319 314 307 300 309 310 296 313 306 294 285 293 284 266 267 112 138 300 300 303 223 181 157 210 109 55 208 146 184 205 210 173 135 180 178 242 209 224 208 261 315 303 300 312 325 314 312 310 324
241 270 294 304 314 319 308 298 291 297 294 285 303 298 289 267 287 280 204 95 27 40 284 283 226 177 193 154 189 141 226 245 181 186 204 204 163 152 175 213 229 204 209 224 246 234 258 298 308 303 312 321 328 326
244 276 295 304 313 313 303 292 283 283 283 281 290 297 299 266 257 257 320 20 3 319 247 279 245 187 169 155 163 176 173 213 206 243 232 199 159 166 142 222 240 245 208 224 219 266 256 303 323 317 331 330 327 326
241 272 296 307 309 307 304 287 273 267 270 283 291 290 287 293 271 278 219 212 164 281 284 270 267 80 170 175 194 180 212 184 215 205 240 118 61 29 222 227 174 220 204 201 214 218 249 260 285 324 330 329 349 356
249 278 290 303 303 300 298 280 270 261 261 277 304 304 274 219 231 89 108 113 155 275 282 254 268 276 159 199 186 182 200 188 201 180 194 88 114 229 224 241 140 171 135 132 194 226 211 254 283 348 357 355 1 7
254 277 289 297 296 292 293 272 261 249 251 283 240 211 230 109 123 137 71 113 114 221 220 267 284 272 202 177 192 156 158 227 169 211 125 125 225 234 226 242 143 177 157 132 140 310 313 285 327 46 30 10 14 10
266 281 289 292 290 286 282 256 233 224 221 209 217 229 82 132 218 211 233 198 150 217 205 217 240 262 315 41 284 338 58 16 55 235 147 165 219 200 231 194 143 148 149 163 193 165 233 293 339 32 99 59 49 48
278 287 291 293 290 284 269 233 199 219 316 303 304 274 189 209 213 246 338 60 184 269 272 225 238 208 221 211 81 45 208 213 219 209 103 16 64 28 131 196 174 163 157 178 219 124 243 275 128 6 156 132 72 72
285 290 293 297 294 282 265 225 211 281 314 242 222 238 166 220 36 62 334 52 251 239 243 263 342 14 357 22 56 25 220 259 322 124 162 51 62 291 300 296 102 147 157 176 142 195 290 91 194 241 126 159 145 87
291 294 298 298 300 300 201 186 204 214 238 248 236 298 213 114 69 300 222 248 247 226 277 292 46 34 5 48 6 48 249 45 13 22 65 120 181 212 263 4 157 175 121 143 173 184 230 245 130 183 300 80 141 114
298 294 299 286 247 174 165 179 194 218 268 257 233 243 76 136 211 231 233 253 226 200 9 130 90 30 45 122 228 291 267 43 38 356 103 177 214 233 268 326 4 137 156 160 97 196 196 255 133 233 147 82 113 116
304 296 204 159 182 165 166 175 202 240 243 246 249 278 338 78 61 314 304 21 35 354 127 91 187 237 49 2 1 17 41 357 264 256 284 134 164 197 40 326 297 300 111 155 161 14 185 137 170 118 128 104 42 126
303 6 161 220 231 164 186 260 198 228 250 239 13 317 262 64 60 172 78 24 96 21 40 13 18 3 274 34 39 65 183 262 266 333 86 106 178 138 48 310 347 350 0 130 142 206 65 155 185 121 135 169 145 294
103 123 88 159 191 137 193 213 259 247 237 197 156 244 280 215 47 55 79 78 17 40 48 56 304 1 33 20 10 11 306 308 323 341 9 53 75 12 10 320 271 313 347 290 214 122 65 297 261 105 166 156 140 126
289 304 271 239 4 290 249 200 225 262 262 84 177 198 212 120 101 130 161 135 171 135 192 182 96 24 41 19 0 353 322 40 339 325 272 175 32 232 237 263 295 15 338 21 51 1 339 270 4 145 168 145 153 138
273 257 232 216 216 248 252 221 199 246 259 208 179 214 167 94 111 314 274 127 175 101 38 36 50 98 76 44 352 358 351 8 335 337 340 351 230 307 322 346 33 39 53 49 5 58 37 321 355 93 90 111 122 138
317 131 134 169 194 235 283 278 270 219 299 24 180 30 314 154 269 197 92 76 72 66 84 84 66 164 118 63 10 14 17 341 326 326 300 342 84 113 109 61 78 26 48 66 61 21 29 325 14 181 118 88 75 101
357 170 209 193 246 215 234 229 226 224 223 175 119 189 249 231 204 102 78 208 99 100 114 125 270 97 122 211 154 246 232 161 307 351 51 171 54 38 69 84 74 98 21 99 147 109 1 354 336 9 115 130 110 71
223 198 238 214 231 195 248 238 230 231 255 182 154 135 82 214 186 97 97 304 119 100 100 161 257 220 194 137 131 34 317 151 117 19 335 86 70 69 56 36 103 134 144 57 73 85 67 17 50 37 290 100 114 102
260 253 253 242 193 251 248 218 225 244 133 204 206 134 185 217 131 147 139 79 112 110 95 15 309 15 128 147 120 92 332 12 102 60 63 94 75 62 20 27 59 65 68 64 72 81 30 33 33 4 349 72 70 102
329 279 152 278 260 244 263 241 242 251 227 229 257 101 347 298 142 200 160 160 97 87 63 359 7 32 71 67 88 63 29 40 70 60 44 104 110 99 64 38 60 52 44 57 32 80 84 25 288 332 71 58 73 113
213 231 166 247 210 236 254 294 349 301 176 245 46 30 330 343 238 208 147 93 95 89 69 22 14 67 88 82 74 67 40 63 71 65 49 54 81 92 95 87 76 14 68 87 86 83 91 352 333 3 90 94 63 107
237 251 213 222 277 290 59 2 43 306 346 76 146 186 237 209 219 131 111 106 113 103 120 321 72 65 100 115 119 121 121 111 123 108 86 83 72 60 63 66 71 7 28 122 157 187 211 231 85 68 49 13 93 55
242 261 256 259 231 254 252 74 32 299 1 127 46 209 225 222 131 128 129 115 120 147 140 115 84 74 70 62 105 158 160 148 154 132 115 103 109 109 94 98 88 91 79 33 29 49 58 44 64 67 95 69 66 82
239 249 256 275 286 289 44 133 186 234 199 141 175 226 207 65 111 117 129 131 141 164 175 181 170 152 143 125 132 118 29 132 111 104 108 120 108 116 124 141 159 186 114 96 59 67 60 60 38 17 80 84 33 64
238 242 240 249 253 44 227 194 223 252 214 196 256 141 95 118 122 135 131 156 171 152 126 100 104 114 130 108 95 77 52 46 26 95 105 109 127 134 147 162 151 139 142 125 134 145 143 191 82 46 65 49 52 67
221 232 232 243 160 206 236 268 238 253 268 231 267 164 136 122 126 168 157 169 135 124 141 167 135 113 139 149 146 144 112 90 75 39 56 97 96 77 58 37 76 78 103 122 107 106 120 115 120 104 58 50 42 7
232 231 241 191 99 9 31 307 281 277 1 59 322 127 132 154 160 191 171 187 163 148 141 138 121 99 87 94 75 75 97 89 64 41 27 73 63 34 17 164 148 144 129 127 126 101 99 98 74 33 35 62 71 21
235 231 230 110 136 177 218 14 330 300 74 51 313 270 165 162 152 144 161 186 195 148 142 111 104 100 99 96 94 85 85 90 94 87 80 75 72 52 34 30 19 345 6 88 126 137 127 111 108 119 93 61 48 31